Погода Большеречье

Погода Большеречье : погода сейчас, прогноз погоды и архив. Всё, что Вы хотите узнать о погоде Большеречье!

Хотите узнать прогноз погоды Большеречье? Тогда Вам сюда: Погода Большеречье

Поиск расширенной информации на нашем сайте:

Другие новости

Новости СМИ2

Главная страница сайта

Новости сайта

03.07.2017

Напоминаем, что на нашем специализированном сайте Метеоцентр.Азия вы можете получить высокодетализированные автоматические прогнозы погоды по пунктам России, СНГ и мира в авиационном формате (включающие направление и скорость ветра, видимость, явления погоды, количество и форму облачности, нижнюю и верхнюю границу облачности).


Погода Большеречье - сегодня

Время (UTC), дата Ветер
(°,м/с) 
Видим.   Явления Облачность Т
(°С)
Тd
(°С)
f(%) Тe
(°С)
Pmin
(гПа)
dP
(гПа)
Po
(мм)
O2
(г/м3)
Тmin Tmax R s Состояние
почвы
06 20.02.18 200 (Ю) 20000 м    10/0 средняя 
[As trans]
-11.1 -15.1 72 -15  1032.1  -0.9  766  323           
09 20.02.18 180 (Ю) 20000 м    8/0 средняя, верхняя 
[Ac As|Cs]
-8.7 -14.7 62 -12  1031.1  -0.9  766  320           
12 20.02.18 180 (Ю) 20000 м    8/0 средняя, верхняя 
[As trans|Cs]
-9.5 -14.7 66 -12  1029.7  -1.4  765  321           
18 20.02.18 160 (Ю) 10 км    10/0 средняя 
[As trans]
-12.8 -16.1 76 -16  1027  -1.9  763  324           
21 20.02.18 140 (ЮВ) 10 км    10/0 средняя 
[Ac As]
-14.5 -17.1 81 -15  1025.8  -1.2  762  326           
00 21.02.18 140 (ЮВ) 10 км    10/0 средняя 
[Ac As]
-14.8 -17.5 80 -15  1024  -1.8  760  325           
03 21.02.18 140 (ЮВ) 20000 м    10/0 средняя, верхняя 
[Ac As|Cs]
-14.7 -18 76 -15  1022.3  -1.7  759  325  -15.4      35  равномерный
сухой снег
100% 
06 21.02.18 120 (ЮВ) 20000 м    10/0 средняя 
[Ac As]
-11 -17 61 -11  1020  -2.2  758  319           
09 21.02.18 140 (ЮВ) 20000 м    10/0 средняя 
[Ac As]
-8.2 -15.4 56 -10  1017.8  -2.1  756  315           
12 21.02.18 110 (В) 20000 м    9/0 средняя, верхняя 
[Ac As|Cc]
-8.2 -14.9 58 -10  1014.3  -3.4  753  314           
15 21.02.18 140 (ЮВ) 10 км    10/0 средняя 
[As trans]
-8.8 -14.5 63 -12  1012.2  -2.1  752  314    -7.6       
18 21.02.18 140 (ЮВ) 10 км    10/0 средняя 
[As op]
-8.8 -13.4 69 -10  1010.1  -2.1  750  314           
21 21.02.18 180 (Ю) 4000 м  слаб. снег  10/0 средняя 
[As op]
-8.8 -11.5 81 -10  1009.3  -0.7  750  313           
00 22.02.18 240 (ЮЗ) 4000 м  слаб. снег  10/0 средняя 
[As op]
-9.5 -12 82 -12  1010.1  0.7  750  314           
03 22.02.18 250 (З) 20000 м  {снег}  1/0 верхняя 
[Cs]
-12.5 -15.5 78 -18  1012.8  2.5  752  319  -12.5    0.4  35  равномерный
сухой снег
100% 
06 22.02.18 260 (З) 20000 м  позёмок{снег}  ясно 
-9.8 -14.6 68 -14  1015.1  2.4  754  316  -12.6         
09 22.02.18 260 (З) 20000 м  позёмок  ясно 
-7.3 -14 59 -12  1016.7  1.6  755  314           
12 22.02.18 210 (ЮЗ) 20000 м    ясно 
-8.9 -14.3 65 -12  1018  1.2  756  316           
15 22.02.18 200 (Ю) 10 км    3/0 верхняя 
[Cs]
-11.2 -15.1 73 -15  1018.4  0.3  756  319    -6.9       
18 22.02.18 170 (Ю) 10 км    10/0 средняя 
[Ac As]
-12.6 -15.9 76 -16  1018.1  -0.4  756  321           
21 22.02.18 200 (Ю) 4000 м  слаб. снег  10/0 средняя 
[As op]
-13 -15.7 80 -16  1017.4  -0.6  755  321           
00 23.02.18 230 (ЮЗ) 4000 м  слаб. снег  10/0 средняя 
[Ac As]
-14 -16.7 80 -19  1017.9  0.4  756  322           
03 23.02.18 230 (ЮЗ) 20000 м  {снег}  10/0 средняя, верхняя 
[As trans|Cs]
-16.5 -18.9 82 -21  1019.2  1.1  757  326  -16.7    0.2  36  равномерный
сухой снег
100% 
06 23.02.18 220 (ЮЗ) 20000 м  {снег}  6/0 верхняя 
[Cs]
-14.3 -18.2 72 -19  1020.1  757  324           
09 23.02.18 220 (ЮЗ) 20000 м    4/0 верхняя 
[Cs]
-10.8 -15.7 67 -15  1020.1  0.1  758  319           
Время (UTC), дата Ветер
(°,м/с) 
Видим.   Явления Облачность Т
(°С)
Тd
(°С)
f(%) Тe
(°С)
Pmin
(гПа)
dP
(гПа)
Po
(мм)
O2
(г/м3)
Тmin Tmax R s Состояние
почвы

Для получения пояснительной информации подведите курсор к названию столбца.

ПОГОДА Большеречье - архив

Всё, что Вы хотите узнать о погоде Большеречье - удобно и подробно!

Выберите нужную дату (начиная с 1 января 2015* года) и нажмите кнопку "Найти".
Будут отображены архивные сводки погоды по пункту Большеречье, начиная с указанной даты.


Отображать данные в формате CSV (для использования в таблицах Excel)


Внимание! Наш архив погоды предназначен исключительно для личного некоммерческого использования в познавательных целях. Если Вам необходимы официальные справки о состоянии погоды (для производственных, юридических, коммерческих и т.п. целей), обращайтесь в органы Росгидромета.

*Примечание: данная дата относится к архиву по метеостанциям СССР (Россия, СНГ, Балтия).
Архив по метеостанциям Зарубежной Европы и Азии (кроме Китая) хранится 10 дней, по другим регионам земного шара (Китай, Африка, Америка, Австралия, Океания) - 1 день.

Большеречье - район местоположения метеостанции


Название, широта, долгота, высота метеостанции:
Большеречье 56.1°ш. 74.6°д. 77 м над ур. моря [Российская Федерация]

Дополнительная информация

В oтличие oт бoльшинства пoгoдных сайтoв мы публикуем пoдрoбную метеoинфoрмацию в детальнoм прoфессиoнальнoм фoрмате.

Характеристики температуры и влажнoсти вoздуха измеряются на высoте 2 м в тени вдали oт зданий и деревьев.
Скoрoсть ветра измеряется на высoте 10 м (на урoвне рoста челoвека скoрoсть ветра ниже в 1.5-2 раза). Если метеoстанция нахoдится в гoрoде или в лесу, тo скoрoсть ветра занижена на 2-4 м/с пo сравнению с oткрытым местoм. Скoрoсть ветра над акватoриями крупных рек и oзёр, а также на вершинах хoлмoв на 2-5 м/с выше, чем в oбычных услoвиях.
Атмoсфернoе давление в разных тoчках местнoсти мoжет значительнo oтличаться oт давления на метеoстанции, в зависимoсти oт услoвий рельефа (при пoдъёме на 10 м давление пoнижается примернo на 1 мм рт.ст.).